Regional Weather Roundup
Issued by NWS

Home | Current Version | Previous Version | Graphics & Text | Print | Product List | Glossary On
Versions: 1 2 3 4 5 6 7 8 9 10 11 12 13 14 15 16 17 18 19 20 21 22 23 24 25 26 27 28 29 30 31 32 33 34 35 36 37 38 39 40 41 42 43 44 45 46 47 48 49 50
000
ASUS43 KLMK 250102
RWRKY
KENTUCKY REGIONAL WEATHER ROUNDUP
NATIONAL WEATHER SERVICE LOUISVILLE KY
900 PM EDT MON APR 24 2017

NOTE "FAIR" INDICATES FEW OR NO CLOUDS BELOW 12,000 FEET
WITH NO SIGNIFICANT WEATHER AND/OR OBSTRUCTIONS TO VISIBILITY.

KYZ001>023-026-027-061>063-070>075-250200-
WESTERN AND SOUTH CENTRAL KENTUCKY

CITY           SKY/WX    TMP DP  RH WIND       PRES   REMARKS
PADUCAH        CLEAR     67  51  56 CALM      29.73R
HENDERSON      CLEAR     67  47  48 S3        29.73F
OWENSBORO      PTCLDY    69  56  62 SE7       29.74S
HOPKINSVILLE   CLEAR     65  54  69 S3        29.75F
BOWLING GREEN  CLOUDY    66  56  70 CALM      29.76S
GLASGOW        NOT AVBL
$$

KYZ024-025-028>034-038-045-046-053-250200-
NORTH CENTRAL KENTUCKY

CITY           SKY/WX    TMP DP  RH WIND       PRES   REMARKS
LOUISVILLE/SDF MOCLDY    68  53  58 E12       29.77R
LOUISVILLE/LOU CLOUDY    68  54  60 E12       29.77S
FORT KNOX      CLOUDY    66  53  63 E7        29.76R
$$

KYZ035>037-039>044-047>052-055>060-089>105-250200-
NORTHEAST KENTUCKY

CITY           SKY/WX    TMP DP  RH WIND       PRES   REMARKS
LEXINGTON      CLOUDY    63  51  65 E9        29.81R
COVINGTON      MOCLDY    63  51  65 E10       29.81S
FRANKFORT      CLOUDY    64  50  60 E9        29.78S
$$

KYZ054-064>069-076>088-106>120-250200-
SOUTHEAST KENTUCKY

CITY           SKY/WX    TMP DP  RH WIND       PRES   REMARKS
JACKSON        CLOUDY    60  52  74 CALM      29.81S
LONDON         CLOUDY    61  52  72 NE7       29.78S
SOMERSET       CLOUDY    61  52  72 NE3       29.79R
MIDDLESBORO    CLOUDY    64  54  70 CALM      29.78S
MONTICELLO     CLOUDY    62  58  86 W7        29.79S
$$





USA.gov is the U.S. government's official web portal to all federal, state and local government web resources and services.